TimeEST,TemperatureF,Dew PointF,Humidity,Sea Level PressureIn,VisibilityMPH,Wind Direction,Wind SpeedMPH,Gust SpeedMPH,PrecipitationIn,Events,Conditions,WindDirDegrees,DateUTC
12:15 AM,-11.6,-17.7,74,30.16,10.0,SW,5.8,-,N/A,,Clear,220,2013-01-03 05:15:00
12:35 AM,-13.0,-18.8,75,30.16,10.0,SW,4.6,-,N/A,,Clear,220,2013-01-03 05:35:00
12:55 AM,-13.0,-18.2,77,30.16,10.0,Calm,Calm,-,N/A,,Clear,0,2013-01-03 05:55:00
1:15 AM,-13.4,-19.1,75,30.15,10.0,Calm,Calm,-,N/A,,Clear,0,2013-01-03 06:15:00
1:35 AM,-15.7,-21.3,76,30.16,10.0,Calm,Calm,-,N/A,,Clear,0,2013-01-03 06:35:00
2:15 AM,-15.2,-21.1,75,30.17,10.0,SW,4.6,-,N/A,,Clear,230,2013-01-03 07:15:00
2:35 AM,-15.5,-21.1,76,30.17,10.0,Calm,Calm,-,N/A,,Clear,0,2013-01-03 07:35:00
2:55 AM,-15.9,-22.0,74,30.16,10.0,Calm,Calm,-,N/A,,Clear,0,2013-01-03 07:55:00
3:15 AM,-15.9,-22.0,74,30.16,10.0,SW,3.5,-,N/A,,Clear,220,2013-01-03 08:15:00
3:35 AM,-15.5,-21.8,73,30.16,10.0,Calm,Calm,-,N/A,,Clear,0,2013-01-03 08:35:00
3:55 AM,-14.4,-20.7,73,30.15,10.0,Calm,Calm,-,N/A,,Scattered Clouds,0,2013-01-03 08:55:00
4:15 AM,-13.9,-19.8,75,30.14,10.0,Calm,Calm,-,N/A,,Scattered Clouds,0,2013-01-03 09:15:00
4:35 AM,-14.3,-20.7,73,30.14,10.0,Calm,Calm,-,N/A,,Clear,0,2013-01-03 09:35:00
4:55 AM,-15.0,-21.1,74,30.13,10.0,Calm,Calm,-,N/A,,Clear,0,2013-01-03 09:55:00
5:15 AM,-15.2,-21.6,73,30.13,10.0,Calm,Calm,-,N/A,,Clear,0,2013-01-03 10:15:00
5:35 AM,-15.2,-21.6,73,30.13,10.0,SW,3.5,-,N/A,,Scattered Clouds,230,2013-01-03 10:35:00
5:55 AM,-15.7,-22.4,72,30.13,10.0,SW,3.5,-,N/A,,Scattered Clouds,220,2013-01-03 10:55:00
6:15 AM,-17.0,-23.6,72,30.13,10.0,Calm,Calm,-,N/A,,Clear,0,2013-01-03 11:15:00
6:35 AM,-16.6,-23.3,72,30.14,10.0,SSW,3.5,-,N/A,,Clear,210,2013-01-03 11:35:00
6:55 AM,-17.3,-24.2,71,30.14,10.0,SSW,4.6,-,N/A,,Clear,210,2013-01-03 11:55:00
7:15 AM,-16.8,-24.0,70,30.13,10.0,Calm,Calm,-,N/A,,Clear,0,2013-01-03 12:15:00
7:35 AM,-15.9,-22.4,73,30.14,10.0,Calm,Calm,-,N/A,,Clear,0,2013-01-03 12:35:00
7:55 AM,-14.8,-20.9,74,30.14,10.0,Calm,Calm,-,N/A,,Clear,0,2013-01-03 12:55:00
8:15 AM,-14.8,-20.9,74,30.13,10.0,Calm,Calm,-,N/A,,Clear,0,2013-01-03 13:15:00
8:35 AM,-13.5,-19.8,73,30.13,10.0,SW,3.5,-,N/A,,Clear,220,2013-01-03 13:35:00
8:55 AM,-12.3,-18.6,74,30.12,10.0,SSW,3.5,-,N/A,,Clear,210,2013-01-03 13:55:00
9:15 AM,-10.3,-16.2,75,30.12,10.0,Calm,Calm,-,N/A,,Clear,0,2013-01-03 14:15:00
9:35 AM,-9.9,-15.9,75,30.12,7.0,Calm,Calm,-,N/A,,Scattered Clouds,0,2013-01-03 14:35:00
9:55 AM,-9.0,-15.2,75,30.11,10.0,SSW,3.5,-,N/A,,Clear,210,2013-01-03 14:55:00
10:15 AM,-6.5,-13.5,72,30.11,10.0,SW,3.5,-,N/A,,Clear,220,2013-01-03 15:15:00
10:35 AM,-4.9,-12.6,69,30.10,10.0,SSW,3.5,-,N/A,,Clear,210,2013-01-03 15:35:00
10:55 AM,-4.0,-12.5,67,30.09,10.0,Calm,Calm,-,N/A,,Scattered Clouds,0,2013-01-03 15:55:00
11:15 AM,-1.5,-11.4,63,30.08,10.0,Calm,Calm,-,N/A,,Scattered Clouds,0,2013-01-03 16:15:00
11:35 AM,-1.3,-11.6,62,30.07,10.0,Calm,Calm,-,N/A,,Clear,0,2013-01-03 16:35:00
11:55 AM,-0.2,-10.7,61,30.06,10.0,Calm,Calm,-,N/A,,Clear,0,2013-01-03 16:55:00
12:15 PM,0.1,-10.7,60,30.05,10.0,Calm,Calm,-,N/A,,Clear,0,2013-01-03 17:15:00
12:35 PM,1.4,-10.1,59,30.05,10.0,Calm,Calm,-,N/A,,Clear,0,2013-01-03 17:35:00
12:55 PM,2.7,-10.1,55,30.03,10.0,ENE,3.5,-,N/A,,Scattered Clouds,60,2013-01-03 17:55:00
1:15 PM,3.2,-9.6,55,30.02,10.0,Calm,Calm,-,N/A,,Mostly Cloudy,0,2013-01-03 18:15:00
1:35 PM,3.2,-9.9,54,30.01,10.0,Calm,Calm,-,N/A,,Mostly Cloudy,0,2013-01-03 18:35:00
1:55 PM,3.4,-8.7,57,30.00,10.0,Calm,Calm,-,N/A,,Mostly Cloudy,0,2013-01-03 18:55:00
2:15 PM,4.8,-6.7,59,29.99,10.0,Calm,Calm,-,N/A,,Overcast,0,2013-01-03 19:15:00
2:35 PM,5.5,-6.0,59,29.99,10.0,Calm,Calm,-,N/A,,Overcast,0,2013-01-03 19:35:00
2:55 PM,5.7,-6.2,58,29.98,10.0,Calm,Calm,-,N/A,,Overcast,0,2013-01-03 19:55:00
3:15 PM,5.9,-7.1,55,29.97,10.0,Calm,Calm,-,N/A,,Overcast,0,2013-01-03 20:15:00
3:35 PM,6.8,-6.7,54,29.97,10.0,Calm,Calm,-,N/A,,Overcast,0,2013-01-03 20:35:00
3:55 PM,6.3,-6.0,57,29.96,10.0,Calm,Calm,-,N/A,,Overcast,0,2013-01-03 20:55:00
4:15 PM,6.8,-3.1,64,29.96,10.0,Calm,Calm,-,N/A,,Overcast,0,2013-01-03 21:15:00
4:35 PM,6.8,-2.6,66,29.95,10.0,Calm,Calm,-,N/A,,Overcast,0,2013-01-03 21:35:00
4:55 PM,6.4,-3.8,63,29.95,10.0,Calm,Calm,-,N/A,,Overcast,0,2013-01-03 21:55:00
5:15 PM,5.9,-3.6,65,29.95,10.0,Calm,Calm,-,N/A,,Overcast,0,2013-01-03 22:15:00
5:35 PM,5.9,-2.0,70,29.96,10.0,Calm,Calm,-,N/A,,Overcast,0,2013-01-03 22:35:00
5:55 PM,5.9,-1.8,70,29.95,10.0,Calm,Calm,-,N/A,,Overcast,0,2013-01-03 22:55:00
6:15 PM,6.8,-1.8,68,29.95,10.0,SSE,3.5,-,N/A,,Overcast,160,2013-01-03 23:15:00
6:35 PM,6.8,-1.5,69,29.95,10.0,Calm,Calm,-,N/A,,Overcast,0,2013-01-03 23:35:00
6:55 PM,6.4,-1.1,71,29.94,10.0,South,3.5,-,N/A,,Overcast,180,2013-01-03 23:55:00
7:15 PM,6.6,-1.5,69,29.93,10.0,South,4.6,-,N/A,,Overcast,190,2013-01-04 00:15:00
7:35 PM,5.9,-2.2,69,29.92,10.0,South,5.8,-,N/A,,Scattered Clouds,190,2013-01-04 00:35:00
7:55 PM,5.5,-2.4,70,29.93,10.0,SSW,6.9,-,N/A,,Clear,200,2013-01-04 00:55:00
8:15 PM,6.3,-2.0,69,29.92,10.0,South,8.1,-,N/A,,Mostly Cloudy,170,2013-01-04 01:15:00
8:35 PM,6.8,-1.7,68,29.92,10.0,South,9.2,-,N/A,,Overcast,190,2013-01-04 01:35:00
8:55 PM,7.5,-1.3,67,29.91,10.0,South,6.9,-,N/A,,Overcast,190,2013-01-04 01:55:00
9:15 PM,7.7,-1.3,67,29.90,10.0,SSW,6.9,-,N/A,Snow,Light Snow,200,2013-01-04 02:15:00
9:35 PM,7.7,-1.3,67,29.90,10.0,South,6.9,-,N/A,Snow,Light Snow,190,2013-01-04 02:35:00
9:55 PM,7.7,-2.2,64,29.90,10.0,South,5.8,-,N/A,,Overcast,190,2013-01-04 02:55:00
10:15 PM,8.2,-1.3,65,29.89,10.0,South,9.2,-,N/A,,Overcast,190,2013-01-04 03:15:00
10:35 PM,8.8,-0.4,66,29.88,10.0,South,8.1,-,N/A,Snow,Light Snow,190,2013-01-04 03:35:00
10:55 PM,9.5,1.2,69,29.87,7.0,South,8.1,-,N/A,Snow,Light Snow,190,2013-01-04 03:55:00
11:15 PM,9.9,1.2,68,29.86,7.0,South,8.1,-,N/A,Snow,Light Snow,190,2013-01-04 04:15:00
11:35 PM,9.5,1.4,70,29.85,7.0,South,8.1,-,N/A,Snow,Light Snow,170,2013-01-04 04:35:00
11:55 PM,10.2,2.3,70,29.84,10.0,South,8.1,-,N/A,Snow,Light Snow,180,2013-01-04 04:55:00